[[{"header":{"parameterUnit":"m.s-1","parameterCategory":1,"la1":30.2991,"la2":30.254,"lo1":-89.0895,"lo2":-89.0444,"dy":0.0017,"dx":0.0017,"nx":28,"ny":28,"refTime":"2024-05-12T21:00:00:Z","depth":0,"parameterNumber":2,"parameterNumberName":"U-component_of_WINDS"},"data":[0,0,0,0,0,0,0,0,0,0,0,0,0,0,0,0,0,0,0,0,0,0,0,0,0,0,0,0,0,0,0,0,0,0,0,0,0,0,0,0,0,0,0,0,0,0,0,0,0,0,0,0,0,0,0,0,0,0,-2.2383,-2.2382,0,-2.227,-2.2268,-2.2267,-2.2197,-2.2197,-2.2196,-2.2196,-2.2083,-2.208,-2.2078,0,0,0,0,0,0,0,0,0,0,0,0,0,-2.2541,-2.2539,-2.2383,-2.2382,-2.238,-2.227,-2.2268,-2.2267,-2.2197,-2.2197,-2.2196,-2.2196,-2.2084,-2.2081,-2.2077,0,0,0,0,0,0,0,0,0,0,0,0,0,-2.2455,-2.2538,-2.2383,-2.2332,-2.2326,-2.227,-2.2268,-2.2266,-2.2197,-2.2197,-2.2196,-2.2196,-2.2085,-2.2081,-2.2077,-2.2064,0,0,-2.2065,-2.2063,0,0,0,0,0,0,0,0,-2.246,-2.2449,-2.2341,-2.2335,-2.2329,-2.2247,-2.2282,-2.2199,-2.2197,-2.2246,-2.2196,-2.2195,-2.2138,-2.213,-2.211,-2.2058,-2.2054,-2.2064,-2.2062,-2.206,-2.2059,0,0,0,0,0,0,0,-2.2466,-2.2454,-2.2338,-2.234,-2.2332,-2.2315,-2.2303,-2.2266,-2.2197,-2.2242,-2.2237,-2.2224,-2.2135,-2.2114,-2.2107,-2.2052,-2.2064,-2.2061,-2.2058,-2.2057,-2.1983,-2.1983,0,0,0,0,0,0,-2.248,-2.2459,-2.2342,-2.2335,-2.2394,-2.2313,-2.2299,-2.2274,-2.2197,-2.2185,-2.2225,-2.2221,-2.2121,-2.2111,-2.2102,-2.208,-2.206,-2.2057,-2.2054,-2.1982,-2.1983,-2.1983,0,0,0,0,0,0,-2.2483,-2.247,-2.2346,-2.2395,-2.2378,-2.2311,-2.2284,-2.2272,-2.2251,-2.2184,-2.2171,-2.2216,-2.212,-2.2108,-2.2073,-2.2075,-2.2055,-2.2051,-2.1982,-2.1982,-2.1983,-2.2037,0,0,0,0,0,0,-2.2488,-2.2472,-2.2465,-2.2396,-2.2376,-2.2319,-2.2284,-2.227,-2.2244,-2.2238,-2.2172,-2.2161,-2.2119,-2.208,-2.2069,-2.2069,-2.2048,-2.1981,-2.1982,-2.1983,-2.2035,-2.2039,-2.2044,0,0,0,0,0,-2.2494,-2.2486,-2.2465,-2.2452,-2.2367,-2.2319,-2.2308,-2.2258,-2.2244,-2.2238,-2.2195,-2.2163,-2.2077,-2.2077,-2.2065,-2.2064,-2.1981,-2.1982,-2.1983,-2.2033,-2.2039,-2.2043,0,0,0,0,0,0,-2.2559,-2.2476,-2.2452,-2.2421,-2.2377,-2.2307,-2.2297,-2.2266,-2.2227,-2.2223,-2.2165,-2.215,-2.2121,-2.2089,-2.209,-2.2046,-2.2025,-2.2024,-2.2068,-2.2073,-2.2077,-2.2084,-2.2045,0,0,0,0,0,-2.2569,-2.2537,-2.2466,-2.2446,-2.2425,-2.2365,-2.2343,-2.2308,-2.2261,-2.2243,-2.2197,-2.2153,-2.2116,-2.2093,-2.2055,-2.2031,-2.2015,-2.2024,-2.2028,-2.2032,-2.2031,-2.2014,-2.2017,-2.1986,-2.1986,-2.1986,0,0,-2.2591,-2.2542,-2.2525,-2.2458,-2.242,-2.2387,-2.235,-2.2318,-2.2293,-2.2238,-2.2201,-2.2167,-2.2114,-2.2084,-2.2069,-2.2056,-2.2036,-2.2033,-2.2037,-2.2034,-2.2016,-2.2019,-2.2021,-2.1987,-2.1987,-2.1987,0,0,-2.2613,-2.2574,-2.2551,-2.2513,-2.2456,-2.2416,-2.2411,-2.2345,-2.2319,-2.2282,-2.2239,-2.221,-2.2148,-2.2111,-2.2085,-2.2093,-2.2062,-2.2083,-2.2105,-2.209,-2.2092,-2.2094,-2.2095,-2.2097,-2.2083,-2.2083,-2.2083,0,-2.2648,-2.2596,-2.2544,-2.2513,-2.2485,-2.2432,-2.2409,-2.2376,-2.231,-2.2291,-2.2279,-2.2199,-2.216,-2.212,-2.2122,-2.2102,-2.2094,-2.2089,-2.2096,-2.2097,-2.2098,-2.2099,-2.21,-2.2086,-2.2085,-2.2085,-2.2085,0,-2.2641,-2.2606,-2.2595,-2.253,-2.2501,-2.2475,-2.2418,-2.2395,-2.2364,-2.2326,-2.2288,-2.2239,-2.219,-2.2179,-2.2149,-2.2134,-2.2128,-2.2107,-2.2084,-2.2105,-2.2104,-2.2104,-2.2089,-2.2088,-2.2088,-2.2087,0,0,-2.27,-2.2606,-2.2603,-2.2572,-2.2505,-2.2477,-2.2449,-2.24,-2.238,-2.2337,-2.2311,-2.226,-2.2239,-2.2209,-2.2174,-2.2161,-2.2169,-2.2141,-2.2138,-2.2146,-2.2149,-2.2164,-2.2165,-2.2149,-2.2149,-2.2149,-2.2152,0,-2.2711,-2.2655,-2.2607,-2.2569,-2.2535,-2.2485,-2.246,-2.2417,-2.238,-2.2348,-2.2308,-2.2272,-2.2248,-2.2229,-2.2214,-2.2171,-2.2168,-2.2171,-2.2124,-2.2123,-2.2136,-2.2165,-2.2181,-2.2187,-2.2152,-2.2152,-2.2152,0,-2.2716,-2.2673,-2.2631,-2.2566,-2.255,-2.2528,-2.2479,-2.2448,-2.2398,-2.2372,-2.2339,-2.2302,-2.227,-2.2253,-2.2207,-2.221,-2.2188,-2.2165,-2.2164,-2.2156,-2.2137,-2.2156,-2.2188,-2.2188,-2.2152,-2.2152,-2.2152,0,-2.2761,-2.2693,-2.2658,-2.2634,-2.2558,-2.2543,-2.2511,-2.246,-2.2434,-2.2391,-2.2373,-2.2328,-2.2303,-2.227,-2.2222,-2.2214,-2.2181,-2.216,-2.2159,-2.216,-2.2153,-2.2154,-2.2179,-2.2142,-2.2142,-2.2142,-2.2142,0,-2.2777,-2.2754,-2.2677,-2.2656,-2.2628,-2.2573,-2.2547,-2.2511,-2.2466,-2.2437,-2.2392,-2.2367,-2.2306,-2.2273,-2.2236,-2.2204,-2.2194,-2.2172,-2.2162,-2.2175,-2.2177,-2.2158,-2.2156,-2.2143,-2.2143,-2.2143,-2.2143,0,-2.2822,-2.277,-2.2729,-2.266,-2.2642,-2.2624,-2.2565,-2.2543,-2.2504,-2.2468,-2.2457,-2.2396,-2.2355,-2.2305,-2.2249,-2.2224,-2.2194,-2.2181,-2.2211,-2.2204,-2.2205,-2.2205,-2.2218,-2.2217,-2.2183,-2.2184,-2.2184,0,-2.2835,-2.2815,-2.2743,-2.272,-2.2688,-2.2652,-2.2624,-2.257,-2.2542,-2.2483,-2.2468,-2.2424,-2.2385,-2.2322,-2.2273,-2.223,-2.2213,-2.2221,-2.2207,-2.222,-2.2211,-2.2212,-2.221,-2.2224,-2.2225,-2.2225,-2.2226,0,-2.2863,-2.2838,-2.2798,-2.2749,-2.2717,-2.2676,-2.2634,-2.2618,-2.2555,-2.2527,-2.2484,-2.2454,-2.2395,-2.2351,-2.2301,-2.2269,-2.2237,-2.2231,-2.2228,-2.224,-2.2257,-2.2246,-2.2219,-2.2231,-2.223,-2.223,-2.223,-2.2229,-2.2891,-2.287,-2.2815,-2.2773,-2.2735,-2.2696,-2.2671,-2.2629,-2.2591,-2.2538,-2.2509,-2.2466,-2.2416,-2.2346,-2.2315,-2.2281,-2.2269,-2.2266,-2.2264,-2.2264,-2.2267,-2.2264,-2.2272,-2.2272,-2.2272,-2.2272,-2.2271,0,-2.2915,-2.2877,-2.2838,-2.2779,-2.2745,-2.2717,-2.2669,-2.2643,-2.2605,-2.2561,-2.2523,-2.2473,-2.243,-2.2379,-2.2332,-2.2315,-2.2299,-2.2305,-2.2305,-2.2297,-2.2281,-2.2287,-2.2318,-2.2318,-2.2318,-2.2318,-2.2318,-2.2318,-2.2923,-2.2886,-2.2854,-2.2798,-2.2761,-2.2717,-2.2691,-2.2656,-2.2619,-2.2565,-2.2528,-2.2495,-2.2447,-2.2397,-2.2357,-2.2342,-2.2327,-2.2336,-2.2318,-2.2303,-2.2299,-2.2295,-2.23,-2.2334,-2.2334,-2.2337,-2.2337,-2.2337]},{"header":{"parameterUnit":"m.s-1","parameterCategory":1,"la1":30.2991,"la2":30.254,"lo1":-89.0895,"lo2":-89.0444,"dy":0.0017,"dx":0.0017,"nx":28,"ny":28,"refTime":"2024-05-12T21:00:00:Z","depth":0,"parameterNumber":3,"parameterNumberName":"V-component_of_WINDS"},"data":[0,0,0,0,0,0,0,0,0,0,0,0,0,0,0,0,0,0,0,0,0,0,0,0,0,0,0,0,0,0,0,0,0,0,0,0,0,0,0,0,0,0,0,0,0,0,0,0,0,0,0,0,0,0,0,0,0,0,3.7316,3.7317,0,3.7431,3.7432,3.7433,3.7484,3.7484,3.7484,3.7484,3.7594,3.7597,3.76,0,0,0,0,0,0,0,0,0,0,0,0,0,3.7133,3.7136,3.7316,3.7317,3.7319,3.7431,3.7432,3.7434,3.7484,3.7484,3.7484,3.7484,3.7593,3.7596,3.76,0,0,0,0,0,0,0,0,0,0,0,0,0,3.7227,3.7137,3.7315,3.7358,3.7363,3.743,3.7432,3.7434,3.7484,3.7484,3.7484,3.7484,3.7592,3.7596,3.7601,3.7633,0,0,3.7615,3.7617,0,0,0,0,0,0,0,0,3.7221,3.7233,3.735,3.7355,3.736,3.7443,3.7408,3.7501,3.7484,3.7438,3.7484,3.7484,3.7543,3.7552,3.7574,3.7638,3.7643,3.7615,3.7618,3.762,3.7621,0,0,0,0,0,0,0,3.7215,3.7228,3.7361,3.7352,3.7358,3.7369,3.7382,3.7426,3.749,3.7442,3.7446,3.7459,3.7546,3.7569,3.7577,3.7644,3.7615,3.7619,3.7622,3.7624,3.7742,3.7742,0,0,0,0,0,0,3.7202,3.7223,3.7357,3.7365,3.7289,3.7372,3.7387,3.7417,3.749,3.7501,3.7459,3.7461,3.7561,3.7571,3.7581,3.7624,3.762,3.7624,3.7627,3.7741,3.7742,3.7742,0,0,0,0,0,0,3.7198,3.7214,3.7353,3.7295,3.7313,3.7375,3.7409,3.7419,3.7442,3.7503,3.7514,3.7472,3.7562,3.7574,3.762,3.7629,3.7626,3.763,3.7741,3.7742,3.7742,3.7711,0,0,0,0,0,0,3.7193,3.7212,3.7226,3.7295,3.7316,3.7392,3.7409,3.7421,3.7451,3.7455,3.7517,3.7528,3.7562,3.7613,3.7625,3.7635,3.7634,3.7741,3.7741,3.7742,3.7711,3.771,3.7709,0,0,0,0,0,3.7186,3.7211,3.7227,3.7243,3.7336,3.7393,3.7405,3.7447,3.7451,3.7465,3.7505,3.7526,3.7626,3.7618,3.7631,3.7642,3.774,3.7741,3.7742,3.7712,3.771,3.7709,0,0,0,0,0,0,3.7138,3.722,3.7239,3.7287,3.7333,3.7401,3.742,3.7444,3.7487,3.7488,3.7536,3.755,3.7592,3.7622,3.7611,3.7678,3.7685,3.7688,3.7657,3.7656,3.7655,3.7647,3.7638,0,0,0,0,0,3.7134,3.7176,3.7244,3.728,3.7302,3.7357,3.7383,3.7412,3.746,3.7479,3.7522,3.7566,3.7607,3.7633,3.7675,3.7716,3.773,3.7731,3.7729,3.7728,3.7731,3.7755,3.7756,3.7745,3.7745,3.7745,0,0,3.7124,3.7174,3.7197,3.7272,3.731,3.7351,3.7373,3.7414,3.7444,3.7484,3.7532,3.7564,3.7616,3.7661,3.7682,3.7687,3.7737,3.7729,3.7728,3.7731,3.7756,3.7757,3.7758,3.7746,3.7746,3.7746,0,0,3.7127,3.7169,3.7205,3.7244,3.7304,3.7341,3.7349,3.7414,3.7439,3.7488,3.7519,3.7554,3.7625,3.7661,3.7689,3.7708,3.7728,3.772,3.7714,3.7737,3.7738,3.7739,3.7746,3.7748,3.7722,3.7722,3.7722,0,3.7106,3.7171,3.7219,3.726,3.7291,3.7333,3.7368,3.7403,3.7472,3.7492,3.7497,3.7588,3.7626,3.768,3.7685,3.7706,3.7716,3.7712,3.7735,3.7736,3.7738,3.7745,3.7747,3.772,3.772,3.7721,3.7721,0,3.7143,3.7187,3.7208,3.7278,3.7311,3.7349,3.7401,3.7429,3.7455,3.7491,3.754,3.7587,3.764,3.7655,3.7679,3.7712,3.7713,3.7726,3.7733,3.7737,3.7744,3.7747,3.7718,3.7719,3.7719,3.772,0,0,3.7118,3.7215,3.7222,3.7255,3.7325,3.7358,3.7397,3.7452,3.7475,3.7521,3.7555,3.7615,3.7628,3.7659,3.7688,3.7709,3.7721,3.7719,3.7721,3.7718,3.7761,3.7751,3.7753,3.7736,3.7737,3.7737,3.7757,0,3.713,3.7206,3.725,3.7306,3.7347,3.7389,3.7423,3.7468,3.7503,3.7541,3.7578,3.762,3.7634,3.7654,3.7676,3.7715,3.7731,3.7714,3.7766,3.7767,3.7752,3.7757,3.7747,3.7762,3.776,3.776,3.7761,0,3.7155,3.7204,3.7265,3.7332,3.7351,3.7381,3.7435,3.7472,3.7524,3.7548,3.7584,3.7614,3.7655,3.766,3.7718,3.7706,3.7729,3.7752,3.7754,3.7759,3.7764,3.7763,3.7768,3.7771,3.7766,3.7765,3.7765,0,3.7131,3.7212,3.7259,3.7286,3.7365,3.7385,3.7418,3.7471,3.7501,3.7548,3.7568,3.7617,3.7644,3.7681,3.7723,3.7723,3.7776,3.7784,3.7796,3.7795,3.7804,3.7803,3.7813,3.782,3.782,3.782,3.782,0,3.714,3.7176,3.725,3.7279,3.732,3.737,3.7409,3.7445,3.7492,3.7527,3.7565,3.7597,3.7651,3.7689,3.7722,3.7764,3.7776,3.7795,3.7803,3.7792,3.7789,3.7807,3.7807,3.782,3.782,3.782,3.782,0,3.712,3.7171,3.7226,3.7297,3.7316,3.7343,3.7403,3.7432,3.747,3.7514,3.7527,3.7585,3.7632,3.7679,3.7741,3.7763,3.7805,3.7816,3.7788,3.7793,3.7802,3.78,3.7824,3.7829,3.7832,3.7832,3.7832,0,3.7123,3.7152,3.7227,3.7256,3.7289,3.7333,3.7366,3.7416,3.7448,3.7511,3.7531,3.7582,3.7625,3.7698,3.7745,3.7793,3.7805,3.781,3.7812,3.78,3.7805,3.7803,3.7806,3.7808,3.7808,3.7808,3.7808,0,3.7122,3.7147,3.7193,3.7249,3.7287,3.7332,3.7379,3.7399,3.7458,3.7491,3.7542,3.7576,3.7641,3.769,3.7744,3.7776,3.7801,3.7807,3.7812,3.78,3.7783,3.7793,3.7785,3.7806,3.7806,3.7806,3.7806,3.7806,3.7113,3.7142,3.72,3.7251,3.7292,3.7335,3.7366,3.7409,3.7453,3.7512,3.7539,3.7589,3.7641,3.7717,3.7749,3.7788,3.7794,3.7802,3.7803,3.7804,3.7802,3.7778,3.7798,3.7798,3.7798,3.7798,3.7798,0,3.7115,3.7155,3.7202,3.7267,3.7307,3.7331,3.7383,3.7414,3.7459,3.7507,3.755,3.7608,3.7657,3.7708,3.7759,3.778,3.7793,3.7792,3.7791,3.7798,3.7793,3.7784,3.7781,3.7781,3.7781,3.7781,3.7781,3.7781,3.712,3.717,3.7201,3.7271,3.7311,3.7363,3.7391,3.7431,3.7469,3.7534,3.7575,3.761,3.7658,3.7714,3.7759,3.7773,3.779,3.7785,3.7802,3.7797,3.7798,3.7799,3.779,3.7789,3.7789,3.7803,3.7803,3.7803]}]]